Precipitable_Water
1.10 1.19 1.24 1.04 0.62 0.66 0.57 0.65 0.82 0.80 0.83 1.06 1.09 0.93 0.90 0.98 0.81 0.63 1.50 1.64 1.60 1.65 1.70 1.62 1.55 1.59 1.74 1.86 1.79 1.60 1.61 1.67 1.70 1.75 1.71 1.68 1.64 1.64 1.63 1.69 1.73 1.75 1.76 1.73 1.73 1.67 1.54 1.52 1.34
1.04 1.06 0.95 0.75 0.54 0.53 0.59 0.80 0.75 0.89 0.99 1.06 0.98 0.95 0.92 0.85 1.13 1.13 1.25 1.54 1.60 1.64 1.66 1.56 1.52 1.52 1.59 1.74 1.83 1.84 1.65 1.58 1.63 1.72 1.74 1.76 1.73 1.62 1.61 1.69 1.72 1.72 1.76 1.83 1.76 1.63 1.50 1.53 1.47
0.99 0.95 0.69 0.51 0.51 0.52 0.59 0.78 0.83 0.97 1.07 1.02 0.92 1.04 1.03 0.98 1.14 1.13 1.36 1.53 1.60 1.55 1.56 1.52 1.46 1.46 1.52 1.62 1.75 1.84 1.87 1.75 1.72 1.64 1.65 1.68 1.72 1.70 1.68 1.67 1.67 1.68 1.74 1.72 1.69 1.54 1.45 1.53 1.51
0.77 0.74 0.63 0.43 0.49 0.66 0.73 0.81 0.89 0.91 1.02 1.06 1.03 0.87 1.19 1.32 1.12 1.22 1.46 1.57 1.50 1.49 1.51 1.48 1.48 1.53 1.59 1.58 1.66 1.75 1.88 1.91 1.87 1.77 1.67 1.60 1.58 1.62 1.62 1.58 1.52 1.48 1.46 1.48 1.46 1.35 1.34 1.44 1.50
0.76 0.62 0.44 0.44 0.53 0.66 0.74 0.80 0.86 0.87 0.94 0.95 1.03 0.92 1.00 1.20 1.25 1.35 1.53 1.58 1.43 1.41 1.45 1.44 1.34 1.46 1.62 1.72 1.74 1.82 1.93 1.96 1.89 1.92 1.84 1.78 1.70 1.64 1.62 1.60 1.58 1.53 1.45 1.36 1.34 1.33 1.35 1.38 1.46
0.53 0.57 0.46 0.39 0.51 0.65 0.82 0.95 0.97 0.94 0.98 0.98 0.99 0.97 0.98 1.23 1.28 1.41 1.48 1.46 1.44 1.30 1.34 1.37 1.42 1.52 1.51 1.50 1.59 1.63 1.62 1.68 1.75 1.77 1.80 1.84 1.90 1.89 1.76 1.69 1.70 1.68 1.68 1.65 1.53 1.39 1.31 1.36 1.40
0.49 0.51 0.42 0.47 0.50 0.62 0.81 0.99 0.90 0.93 0.89 0.93 1.09 0.84 0.99 1.06 1.27 1.48 1.31 1.32 1.32 1.33 1.38 1.40 1.41 1.37 1.36 1.36 1.35 1.35 1.32 1.37 1.43 1.47 1.50 1.58 1.65 1.74 1.80 1.93 1.91 1.82 1.76 1.74 1.72 1.70 1.58 1.44 1.35
0.57 0.53 0.45 0.47 0.46 0.60 0.86 0.94 1.02 0.90 0.88 1.17 1.14 0.79 0.78 1.09 1.37 1.42 1.34 1.29 1.28 1.32 1.38 1.39 1.37 1.36 1.32 1.38 1.39 1.39 1.44 1.45 1.41 1.39 1.35 1.32 1.36 1.45 1.52 1.51 1.64 1.76 1.91 1.93 1.83 1.83 1.72 1.61 1.55
0.57 0.49 0.42 0.48 0.57 0.65 0.88 0.85 1.01 1.10 0.97 1.03 1.13 1.01 1.08 1.27 1.31 1.29 1.24 1.24 1.30 1.33 1.39 1.40 1.30 1.27 1.23 1.19 1.18 1.21 1.22 1.23 1.24 1.25 1.31 1.40 1.47 1.52 1.54 1.55 1.47 1.40 1.42 1.51 1.72 1.81 1.82 1.76 1.64
0.47 0.48 0.48 0.66 0.74 0.72 0.83 0.87 0.92 0.97 0.96 0.94 0.97 1.05 1.12 1.23 1.22 1.16 1.12 1.16 1.20 1.23 1.29 1.28 1.22 1.17 1.10 1.05 1.06 1.06 1.06 1.06 1.04 1.05 1.05 1.07 1.12 1.22 1.32 1.41 1.50 1.63 1.60 1.53 1.47 1.48 1.58 1.71 1.70
0.45 0.47 0.63 0.75 0.84 0.84 0.79 0.83 0.97 0.94 0.87 0.96 0.88 0.96 1.09 1.15 1.16 1.14 1.12 1.07 1.11 1.21 1.10 1.04 1.05 1.09 1.05 1.05 1.06 1.06 1.03 1.03 1.02 0.99 0.97 0.95 0.95 0.98 1.01 1.10 1.20 1.31 1.38 1.47 1.58 1.58 1.56 1.57 1.60
0.44 0.67 0.74 0.81 0.87 0.81 0.79 0.92 0.89 0.95 1.02 1.11 1.04 1.07 1.11 1.09 1.06 1.04 0.94 0.99 0.99 0.98 1.02 1.10 1.10 1.03 1.01 0.99 0.94 0.95 0.95 0.94 0.91 0.88 0.88 0.85 0.86 0.88 0.87 0.90 0.99 1.07 1.18 1.24 1.33 1.39 1.46 1.49 1.58
0.51 0.66 0.82 0.91 0.87 0.86 0.92 0.86 0.92 0.97 1.17 1.17 1.10 1.04 0.95 0.93 0.95 0.96 1.00 1.00 1.01 1.00 1.01 1.03 1.02 0.93 0.93 0.87 0.83 0.85 0.81 0.79 0.78 0.76 0.76 0.75 0.72 0.70 0.69 0.73 0.82 0.88 0.95 1.02 1.16 1.23 1.36 1.44 1.72
0.63 0.71 0.81 0.91 0.85 0.89 0.85 0.87 0.91 1.00 1.22 1.10 1.02 0.95 0.92 0.93 0.99 1.02 1.02 1.01 1.06 1.06 0.98 0.98 0.94 0.90 0.85 0.81 0.79 0.79 0.79 0.77 0.76 0.76 0.74 0.73 0.71 0.67 0.65 0.65 0.66 0.69 0.77 0.85 0.91 1.04 1.17 1.31 1.57
0.72 0.61 0.80 0.84 0.83 0.83 0.91 0.78 0.81 1.00 1.12 1.07 1.02 0.97 1.04 1.06 1.09 1.04 1.05 1.03 1.10 1.06 1.02 0.96 0.90 0.87 0.86 0.85 0.84 0.84 0.83 0.80 0.75 0.72 0.70 0.66 0.64 0.63 0.64 0.64 0.66 0.69 0.71 0.72 0.79 0.85 0.94 1.09 1.33
0.65 0.66 0.58 0.78 0.78 0.86 0.82 0.62 0.87 1.04 1.03 0.98 0.98 0.99 1.07 1.13 1.14 1.12 1.09 1.14 1.13 1.04 0.96 0.96 0.92 0.87 0.88 0.88 0.87 0.85 0.81 0.78 0.74 0.70 0.67 0.63 0.61 0.58 0.55 0.53 0.57 0.67 0.71 0.70 0.69 0.73 0.75 0.83 0.93
0.59 0.44 0.50 0.61 0.78 0.77 0.77 0.66 0.88 1.04 1.04 0.98 1.02 1.06 1.10 1.13 1.13 1.09 1.13 1.22 1.17 1.08 1.02 0.92 0.88 0.86 0.89 0.89 0.90 0.88 0.81 0.72 0.67 0.64 0.60 0.59 0.57 0.55 0.53 0.51 0.54 0.59 0.61 0.66 0.70 0.71 0.72 0.70 0.76
0.38 0.32 0.44 0.51 0.66 0.72 0.68 0.70 0.87 1.00 1.02 1.01 1.03 1.08 1.09 1.07 1.03 1.06 1.17 1.23 1.20 1.13 1.03 0.93 0.91 0.92 0.90 0.86 0.79 0.74 0.68 0.65 0.62 0.58 0.56 0.56 0.57 0.56 0.55 0.53 0.57 0.61 0.59 0.62 0.64 0.67 0.74 0.74 0.72
0.31 0.29 0.38 0.53 0.68 0.67 0.68 0.71 0.82 0.96 1.00 1.01 1.04 1.08 1.09 1.10 1.09 1.16 1.21 1.20 1.16 1.11 1.00 0.94 0.90 0.86 0.80 0.71 0.63 0.56 0.51 0.52 0.53 0.56 0.59 0.59 0.60 0.60 0.59 0.57 0.59 0.63 0.62 0.64 0.68 0.66 0.62 0.67 0.76
0.29 0.28 0.38 0.56 0.69 0.70 0.69 0.66 0.83 0.92 0.95 1.00 1.02 1.05 1.09 1.09 1.09 1.19 1.18 1.15 1.12 1.03 0.96 0.90 0.82 0.78 0.72 0.65 0.59 0.53 0.52 0.55 0.56 0.57 0.58 0.61 0.60 0.60 0.58 0.60 0.59 0.65 0.67 0.69 0.70 0.69 0.62 0.64 0.75
0.29 0.28 0.38 0.43 0.64 0.76 0.70 0.62 0.71 0.87 0.97 1.02 1.07 1.11 1.15 1.08 1.08 1.10 1.08 1.11 1.03 0.93 0.87 0.81 0.77 0.73 0.67 0.59 0.49 0.49 0.52 0.52 0.51 0.53 0.55 0.59 0.60 0.58 0.58 0.60 0.61 0.65 0.68 0.68 0.73 0.74 0.70 0.62 0.72
0.26 0.34 0.42 0.47 0.48 0.42 0.65 0.38 0.58 0.73 0.81 0.93 1.01 1.09 1.10 1.08 1.10 1.07 1.06 1.02 0.93 0.86 0.84 0.79 0.74 0.67 0.59 0.50 0.47 0.48 0.46 0.46 0.52 0.55 0.59 0.60 0.62 0.61 0.59 0.59 0.63 0.65 0.69 0.70 0.73 0.75 0.73 0.71 0.67
0.36 0.42 0.47 0.50 0.48 0.49 0.53 0.46 0.50 0.70 0.68 0.83 0.99 1.06 1.05 1.07 1.05 1.02 1.01 0.92 0.87 0.84 0.79 0.75 0.68 0.59 0.51 0.48 0.51 0.50 0.50 0.53 0.56 0.58 0.59 0.59 0.60 0.62 0.62 0.61 0.63 0.66 0.67 0.70 0.69 0.70 0.71 0.72 0.71
0.51 0.47 0.50 0.52 0.50 0.36 0.49 0.48 0.47 0.56 0.67 0.82 0.99 0.98 0.99 1.00 0.98 1.00 0.93 0.86 0.81 0.80 0.74 0.68 0.59 0.51 0.48 0.52 0.54 0.54 0.53 0.56 0.56 0.58 0.59 0.59 0.59 0.60 0.60 0.61 0.65 0.68 0.67 0.66 0.66 0.69 0.72 0.73 0.74
0.48 0.41 0.34 0.33 0.34 0.31 0.53 0.49 0.51 0.68 0.80 0.84 0.90 0.89 0.91 0.94 0.94 0.86 0.78 0.77 0.76 0.70 0.65 0.58 0.51 0.41 0.51 0.53 0.55 0.56 0.58 0.60 0.58 0.58 0.59 0.59 0.59 0.58 0.57 0.61 0.63 0.63 0.65 0.65 0.66 0.67 0.70 0.72 0.72
0.43 0.39 0.32 0.24 0.29 0.35 0.57 0.40 0.49 0.80 0.88 0.93 0.94 0.89 0.87 0.87 0.90 0.80 0.75 0.76 0.68 0.64 0.59 0.52 0.40 0.44 0.50 0.53 0.55 0.58 0.62 0.60 0.60 0.63 0.64 0.63 0.63 0.63 0.62 0.61 0.62 0.63 0.64 0.64 0.64 0.64 0.69 0.73 0.73
0.41 0.35 0.43 0.40 0.49 0.42 0.46 0.50 0.70 0.80 0.78 0.84 0.83 0.80 0.78 0.82 0.80 0.76 0.75 0.71 0.63 0.59 0.53 0.42 0.42 0.48 0.50 0.53 0.57 0.59 0.62 0.62 0.63 0.68 0.69 0.68 0.67 0.66 0.66 0.65 0.64 0.65 0.66 0.64 0.63 0.63 0.66 0.70 0.72
0.43 0.48 0.40 0.44 0.33 0.28 0.38 0.44 0.45 0.60 0.64 0.73 0.74 0.74 0.76 0.79 0.77 0.73 0.73 0.64 0.62 0.53 0.46 0.42 0.45 0.47 0.51 0.54 0.58 0.62 0.63 0.63 0.68 0.70 0.69 0.70 0.69 0.68 0.69 0.67 0.68 0.68 0.69 0.69 0.66 0.65 0.68 0.70 0.70
0.42 0.41 0.45 0.49 0.46 0.33 0.32 0.38 0.59 0.58 0.66 0.69 0.72 0.73 0.75 0.74 0.71 0.71 0.66 0.63 0.54 0.48 0.41 0.41 0.45 0.49 0.51 0.56 0.60 0.61 0.63 0.61 0.66 0.70 0.72 0.73 0.74 0.70 0.70 0.72 0.71 0.70 0.70 0.71 0.69 0.70 0.72 0.72 0.69
0.47 0.46 0.50 0.41 0.41 0.48 0.45 0.39 0.57 0.61 0.71 0.74 0.70 0.73 0.73 0.71 0.70 0.68 0.60 0.58 0.50 0.44 0.39 0.41 0.46 0.49 0.53 0.58 0.61 0.62 0.62 0.60 0.63 0.69 0.74 0.77 0.77 0.76 0.75 0.76 0.75 0.72 0.71 0.72 0.71 0.68 0.68 0.71 0.71
Wind_Speed
11 9 7 7 6 7 8 7 5 6 7 7 9 9 9 12 10 8 8 9 9 9 7 6 4 2 1 2 2 2 3 5 7 9 11 11 12 14 15 15 15 15 16 17 17 17 17 16 16
10 8 7 7 8 8 7 5 6 6 7 8 10 10 12 10 11 8 8 8 8 9 8 7 5 3 2 2 3 3 4 5 6 8 9 11 12 13 15 16 17 17 17 18 18 19 19 19 18
9 7 6 7 7 8 8 7 8 7 6 7 7 9 10 10 11 9 10 8 9 9 9 8 6 5 3 3 3 5 6 6 7 9 10 11 12 13 15 16 17 18 18 19 20 20 21 22 21
6 6 7 8 10 8 7 6 4 5 6 8 7 9 8 10 10 11 10 8 9 10 9 9 8 7 6 5 5 6 7 8 9 10 11 12 14 15 16 16 17 18 19 20 21 22 23 24 24
6 6 7 9 8 7 6 5 3 5 4 7 6 7 8 9 10 11 11 9 9 9 10 9 8 8 8 7 6 5 6 7 9 11 12 14 16 17 18 19 19 20 21 21 22 23 24 25 25
5 6 8 9 8 7 9 8 8 9 7 6 8 8 8 8 10 11 11 10 9 9 10 10 9 9 9 9 7 7 7 8 10 11 12 14 16 18 20 21 22 22 23 23 24 24 25 26 27
6 7 8 10 9 8 7 8 11 9 7 7 7 7 7 8 9 10 10 10 10 10 10 11 10 11 10 9 8 8 8 10 11 13 15 15 17 19 20 21 23 25 26 27 27 27 27 28 29
9 8 8 7 7 8 7 8 11 10 9 9 7 7 6 8 9 10 10 10 11 11 11 11 11 12 11 10 9 9 10 10 11 13 15 16 18 21 23 25 26 27 28 29 30 30 31 31 31
8 6 7 7 8 8 8 8 10 10 8 6 6 7 9 9 9 9 10 11 12 11 12 12 12 12 12 12 11 12 13 13 14 15 16 18 20 21 23 24 27 29 31 32 32 33 33 33 35
5 5 5 6 7 8 8 9 11 9 7 7 8 9 8 8 8 10 10 10 12 12 13 13 13 13 13 13 14 15 16 16 17 18 19 20 22 23 25 26 27 29 31 33 34 35 37 37 38
4 4 5 6 9 9 8 9 11 11 9 4 6 7 7 8 8 9 10 11 12 12 13 14 15 15 16 16 17 18 19 20 20 22 23 24 26 27 28 29 29 29 30 32 35 37 38 41 41
5 5 5 7 7 6 6 7 10 10 9 9 9 7 6 5 7 8 9 9 12 13 13 15 17 18 18 19 19 20 21 22 23 24 25 27 28 30 31 32 32 32 32 33 34 34 37 40 41
4 5 7 8 8 7 7 8 9 11 9 9 8 6 6 5 6 7 9 10 12 13 15 17 19 19 19 20 21 21 23 24 24 26 27 28 29 30 32 33 34 35 35 35 34 34 34 34 34
5 9 8 6 5 4 5 5 5 6 6 7 6 7 5 5 5 6 8 10 13 14 17 19 19 20 20 21 21 22 23 25 26 28 29 30 31 31 31 31 31 33 35 37 37 36 35 33 32
8 8 6 3 2 1 1 5 3 3 3 3 4 4 4 4 4 6 8 12 14 16 18 18 19 20 21 22 23 24 26 27 29 30 32 32 32 32 32 31 31 31 32 33 36 37 37 36 35
6 5 5 4 2 2 5 3 1 0 1 1 1 1 4 5 6 7 9 13 16 18 18 18 20 22 22 23 25 26 28 30 32 32 33 32 32 32 32 32 31 32 32 31 32 33 36 37 37
5 5 4 5 5 3 5 2 4 4 2 2 2 3 5 6 6 8 11 14 17 17 18 19 21 22 24 26 27 29 30 31 31 31 32 32 33 33 33 32 31 32 31 30 30 31 32 35 37
9 5 6 7 8 6 5 4 5 6 5 4 4 5 6 7 8 10 12 15 17 17 19 20 22 24 26 28 30 31 31 30 31 32 32 33 33 33 32 31 30 29 29 29 28 29 30 31 34
9 6 7 4 5 7 7 4 5 6 7 7 7 7 8 8 10 11 14 16 17 18 19 21 23 26 28 30 31 29 29 29 30 31 33 34 34 33 32 30 28 27 26 26 27 26 27 28 29
9 7 4 3 4 5 5 4 5 7 9 9 9 9 9 9 10 12 15 16 17 18 20 21 24 27 29 30 30 30 29 29 30 32 33 34 33 33 31 30 28 26 25 24 24 24 24 25 25
12 11 9 5 3 4 4 5 7 8 11 11 11 11 11 11 11 12 14 16 17 18 20 22 25 28 30 31 30 29 28 29 30 31 32 33 32 32 31 29 27 24 23 22 22 22 22 22 22
11 9 9 7 5 6 9 7 9 9 11 11 12 12 10 10 11 13 14 15 16 18 20 23 27 29 30 31 29 29 29 29 30 32 33 33 32 31 30 28 25 24 22 21 20 20 20 20 20
6 7 8 6 4 4 9 10 7 9 11 11 10 8 8 9 11 12 13 15 16 18 21 24 28 29 30 30 29 28 28 29 30 31 32 32 31 31 29 27 25 23 21 19 19 19 18 17 18
9 8 3 4 6 9 7 10 9 9 13 11 9 7 8 8 10 11 13 14 16 19 22 25 27 29 29 29 28 28 29 30 31 31 31 30 31 31 29 27 25 23 20 18 16 15 14 15 15
9 7 4 6 7 10 8 9 11 9 9 11 8 7 7 8 9 11 12 14 16 19 23 25 27 28 28 28 28 28 29 30 31 30 29 29 30 31 29 27 25 22 19 16 15 13 12 11 11
12 7 6 8 8 8 7 10 8 9 10 8 6 6 6 7 9 10 12 14 17 20 22 24 26 26 27 27 27 28 29 30 29 27 27 28 29 31 29 27 25 23 20 17 15 12 10 10 9
10 10 5 3 7 8 8 10 10 8 7 6 6 5 5 7 8 9 11 14 17 19 21 23 24 25 26 26 26 28 29 29 27 27 27 27 28 29 29 28 26 24 22 19 16 12 11 9 8
9 8 6 6 5 8 8 11 12 9 8 7 6 6 5 6 8 9 11 14 17 17 20 22 23 24 26 25 27 28 29 27 26 26 27 27 27 28 28 27 26 25 23 22 17 14 12 10 8
8 8 5 5 8 8 8 9 11 10 9 8 7 6 5 6 7 9 12 14 15 16 19 20 21 23 25 26 27 28 28 26 26 27 27 27 27 27 27 27 27 25 24 23 20 16 14 12 10
8 8 8 10 8 8 10 10 11 10 8 7 6 5 5 6 7 9 11 13 13 15 18 19 20 22 23 25 25 27 26 25 25 26 27 27 26 27 26 26 26 26 26 24 22 20 17 14 11
Wind_Direction
115 106 88 83 93 88 92 94 73 73 43 27 24 20 24 15 9 19 12 23 25 16 14 8 3 348 308 277 265 239 226 221 220 221 223 224 229 227 229 233 235 237 236 235 235 235 233 231 228
112 96 85 77 88 102 97 77 79 74 70 52 40 31 32 30 33 31 27 21 22 21 20 16 13 360 322 289 264 252 240 234 232 229 229 232 235 234 235 239 241 242 242 240 239 239 236 233 231
105 86 81 73 76 99 110 97 84 71 31 17 23 30 24 40 41 38 26 28 32 29 23 17 15 9 353 315 283 267 258 252 247 242 241 240 241 242 244 246 247 246 245 245 244 242 238 235 233
97 86 80 81 84 84 90 116 61 55 30 17 34 36 55 48 39 30 27 37 35 28 25 25 23 20 7 341 309 283 269 264 260 257 253 252 251 251 252 252 252 250 249 249 247 244 241 238 236
90 85 85 87 79 76 59 27 356 13 24 23 34 64 57 50 36 33 37 39 34 31 27 24 22 13 2 350 332 312 298 280 270 266 264 262 260 258 256 255 255 254 253 252 249 247 244 241 240
100 97 95 93 88 69 63 56 49 43 51 58 68 73 59 54 35 37 39 40 35 32 27 27 22 11 358 348 334 323 309 298 291 284 281 276 267 264 261 260 258 257 256 254 252 250 247 245 243
115 105 90 94 93 78 70 50 37 50 61 66 71 66 66 44 37 44 41 38 33 28 25 21 16 9 3 357 349 334 320 309 299 292 286 283 275 270 269 265 262 260 258 256 255 252 250 248 246
118 103 99 82 104 72 65 59 49 57 68 88 65 66 67 51 54 48 41 39 35 32 24 19 15 8 8 3 356 349 339 325 312 304 298 291 282 276 275 273 268 266 263 259 257 255 253 251 249
118 112 102 87 104 83 80 55 41 47 73 62 63 75 84 71 52 53 46 44 36 30 24 17 9 7 3 359 352 342 333 326 318 309 304 296 291 286 281 278 274 269 266 263 261 259 257 253 252
114 113 89 83 92 99 76 63 39 35 69 66 82 88 85 57 60 59 50 41 34 31 23 16 10 4 357 349 342 336 330 323 317 310 304 300 296 292 284 281 280 275 268 265 264 262 259 256 255
114 106 116 87 103 101 83 53 36 52 46 71 103 100 87 75 64 55 44 35 28 23 19 12 5 357 347 339 332 326 323 319 314 314 308 302 297 294 289 284 281 278 274 270 267 263 261 260 258
121 87 126 119 111 96 65 54 39 39 54 82 96 97 90 77 61 50 39 35 25 19 7 360 354 348 342 338 334 330 326 321 317 314 311 306 300 296 292 286 281 278 276 273 270 267 263 260 265
122 121 121 116 101 89 79 51 54 54 63 80 86 86 86 73 57 39 29 22 11 5 356 351 347 345 342 339 334 331 327 324 320 318 316 312 307 302 297 291 284 279 276 273 272 269 266 266 261
137 123 128 122 109 104 87 43 17 44 71 84 78 72 72 58 43 20 12 4 355 352 350 345 345 346 344 342 339 335 332 328 325 322 319 315 311 307 302 296 291 285 278 273 270 268 266 263 262
142 128 127 109 146 132 46 355 12 50 69 82 65 59 39 19 2 360 356 351 345 343 342 345 344 344 341 341 339 335 332 328 325 322 320 318 314 310 305 299 294 289 285 279 271 267 264 262 258
158 153 167 203 189 261 312 326 312 151 70 72 45 17 357 334 330 331 336 343 343 342 343 342 341 341 340 339 336 333 331 329 327 325 323 321 318 314 308 302 296 292 286 282 276 270 264 261 259
213 201 211 217 239 282 287 300 242 233 269 282 284 308 338 332 328 331 332 335 339 340 341 340 340 339 337 335 332 331 329 329 329 328 327 325 323 320 314 307 300 294 288 283 278 274 268 262 259
211 226 226 224 238 268 264 275 228 235 250 270 274 295 314 322 327 327 332 334 336 338 338 338 337 338 335 334 332 330 330 331 331 331 331 329 326 324 321 315 307 300 290 284 280 276 271 267 262
209 220 207 252 270 252 268 237 236 239 250 266 274 291 306 317 325 327 332 334 335 336 336 336 337 336 335 334 334 333 332 332 332 332 332 331 329 327 324 319 313 305 297 289 282 279 275 271 267
218 206 239 291 256 272 239 257 257 245 254 265 276 286 301 312 320 327 332 335 334 334 335 336 337 337 337 336 336 335 335 335 335 335 335 334 334 331 328 323 317 310 303 294 287 283 279 273 270
230 232 222 250 256 283 222 283 265 263 268 268 278 284 294 303 314 323 328 332 333 335 336 337 337 338 339 339 339 339 338 338 338 338 337 336 335 334 332 328 323 316 308 301 292 286 285 276 272
230 235 212 194 237 275 256 293 270 264 264 267 278 282 291 307 317 321 326 330 333 336 337 338 339 340 341 342 342 342 342 341 340 339 339 338 338 336 336 333 328 323 314 306 299 290 285 280 274
235 211 193 208 269 261 257 289 305 270 265 266 278 282 296 306 316 322 328 332 336 337 338 339 341 343 344 345 345 344 345 344 343 343 343 343 344 342 340 337 333 328 322 313 305 299 288 282 276
172 153 184 260 277 280 274 283 291 280 267 263 272 278 296 305 316 325 329 332 336 338 340 341 343 345 346 347 348 348 347 346 346 347 348 348 349 348 347 344 341 337 330 323 316 308 303 286 280
208 214 252 268 272 286 296 278 303 280 290 267 260 277 293 302 313 325 330 335 338 340 342 345 347 348 349 350 351 351 350 349 349 350 353 355 355 355 354 353 350 349 344 337 330 320 313 304 289
203 231 247 258 273 289 291 284 300 302 296 270 252 276 292 303 312 326 333 337 340 342 346 348 350 351 352 353 354 353 353 353 354 356 356 357 358 1 0 360 359 357 353 347 342 336 325 318 304
221 237 251 264 297 285 288 296 290 292 294 255 247 268 285 303 316 326 333 339 343 346 349 351 353 355 356 357 357 356 356 357 359 360 360 360 2 4 7 8 8 7 5 2 358 351 346 332 320
229 202 241 267 263 280 288 295 285 274 261 248 247 258 283 301 317 326 333 340 345 349 350 353 356 358 359 0 360 359 0 2 3 4 4 5 6 7 9 9 10 11 12 10 7 5 357 352 340
216 229 264 264 281 284 293 299 313 269 247 233 241 257 281 298 315 324 334 341 346 350 351 354 357 359 1 2 2 2 4 7 9 9 9 9 9 10 11 13 14 14 13 14 14 10 5 359 356
232 239 243 263 265 287 300 308 316 292 240 229 236 259 286 303 316 325 335 341 346 349 352 355 358 0 3 3 4 5 8 10 10 11 11 11 10 12 14 15 16 18 18 17 17 16 13 9 4